This demonstration page uses our WeatherBlox Daily Observations layout. Learn more.

Left ArrowRight Arrow

38.20091, -84.87328

Hourly Observations for September 18, 2016

Temp ( °F °C ) Dew Point ( °F °C ) Humidity (%) Winds ( mph kmh ) Pressure ( in mb ) Visibility ( mi km ) Precip ( " mm )
12:53 am 00:53 Cloudy 72 22.2 68 20 87 87 S 3 6 30.01 1016 10 16 0.00 0.00
1:53 am 01:53 Cloudy 72 22.2 68 20 87 87 SSW 3 6 30.01 1016 10 16 0.00 0.00
2:53 am 02:53 Cloudy 72 22.2 68 20 87 87 SSW 3 6 29.99 1016 10 16 0.00 0.00
3:43 am 03:43 Cloudy 72 22.2 68 20 87 87 Calm 29.97 1015 10 16 0.00 0.00
3:53 am 03:53 Cloudy 71 21.7 68 20 90 90 Calm 29.97 1015 9 14 0.00 0.00
4:20 am 04:20 Cloudy 71 21.7 68 20 90 90 SSW 3 6 29.97 1015 8 13 0.00 0.00
4:53 am 04:53 Cloudy 71 21.7 68 20 90 90 WSW 3 6 29.98 1015 7 11 0.00 0.00
5:16 am 05:16 Cloudy 71 21.7 68 20 90 90 SW 5 7 29.97 1015 9 14 0.00 0.00
5:53 am 05:53 Cloudy 71 21.7 68 20 90 90 Calm 29.97 1015 9 14 0.00 0.00
6:07 am 06:07 Cloudy 71 21.7 68 20 90 90 Calm 29.97 1015 8 13 0.00 0.00
6:28 am 06:28 Cloudy 71 21.7 68 20 90 90 Calm 29.97 1015 7 11 0.00 0.00
6:36 am 06:36 Cloudy 71 21.7 68 20 90 90 Calm 29.97 1015 7 11 0.00 0.00
6:45 am 06:45 Cloudy 71 21.7 68 20 90 90 Calm 29.97 1015 7 11 0.00 0.00
6:53 am 06:53 Cloudy 71 21.7 68 20 90 90 Calm 29.97 1015 7 11 0.00 0.00
7:31 am 07:31 Cloudy with Mist and Fog 71 21.7 68 20 90 90 Calm 29.97 1015 5 8 0.00 0.00
7:44 am 07:44 Cloudy with Mist and Fog 71 21.7 68 20 90 90 Calm 29.97 1015 4 6 0.00 0.00
7:53 am 07:53 Cloudy with Mist and Fog 71 21.7 68 20 90 90 Calm 29.99 1016 5 8 0.00 0.00
8:03 am 08:03 Cloudy with Mist and Fog 71 21.7 68 20 90 90 Calm 29.97 1015 6 10 0.00 0.00
8:20 am 08:20 Partly Cloudy with Mist and Fog 70 21.1 68 20 93 93 E 5 7 29.97 1015 4 6 0.00 0.00
8:36 am 08:36 Partly Cloudy with Mist and Fog 71 21.7 68 20 90 90 ENE 3 6 29.97 1015 3 5 0.00 0.00
8:39 am 08:39 Mostly Cloudy with Mist and Fog 71 21.7 68 20 90 90 NE 3 6 29.97 1015 3 4 0.00 0.00
8:48 am 08:48 Mostly Cloudy with Mist and Fog 72 22 68 20 88 88 NE 5 7 29.97 1015 2 2 0.00 0.00
8:53 am 08:53 Mostly Cloudy with Mist and Fog 71 21.7 69 20.6 94 94 NNE 3 6 29.98 1015 2 3 0.00 0.00
8:58 am 08:58 Mostly Cloudy with Mist and Fog 72 22.2 69 20.6 91 91 Calm 29.97 1015 3 5 0.00 0.00
9:15 am 09:15 Mostly Sunny 73 22.8 69 20.6 87 87 Calm 29.97 1015 8 13 0.00 0.00
9:53 am 09:53 Mostly Sunny 75 23.9 68 20 79 79 NE 8 13 29.98 1015 10 16 0.00 0.00
10:07 am 10:07 Mostly Cloudy 75 23.9 68 20 79 79 ENE 6 9 29.97 1015 10 16 0.00 0.00
10:14 am 10:14 Partly Cloudy 76 24.4 68 20 77 77 NNE 3 6 30.00 1016 10 16 0.00 0.00
10:53 am 10:53 Mostly Cloudy 76 24.4 68 20 77 77 E 7 11 30.00 1016 10 16 0.00 0.00
11:24 am 11:24 Mostly Cloudy 79 26.1 68 20 69 69 VRB 5 7 30.00 1016 10 16 0.00 0.00
11:33 am 11:33 Mostly Cloudy 80 26.7 68 20 67 67 VRB 3 6 30.00 1016 10 16 0.00 0.00
11:46 am 11:46 Mostly Cloudy 80 26.7 68 20 67 67 NE 3 6 30.00 1016 10 16 0.00 0.00
11:53 am 11:53 Cloudy 80 26.7 67 19.4 64 64 NNE 3 6 30.01 1016 10 16 0.00 0.00
12:53 pm 12:53 Cloudy 79 26.1 66 18.9 65 65 Calm 29.99 1016 10 16 0.00 0.00
1:04 pm 13:04 Cloudy 80 26.7 67 19.4 64 64 Calm 29.97 1015 10 16 0.00 0.00
1:53 pm 13:53 Mostly Cloudy 82 27.8 67 19.4 60 60 ENE 6 9 29.96 1015 10 16 0.00 0.00
2:53 pm 14:53 Sunny 81 27.2 65 18.3 58 58 Calm 29.95 1014 10 16 0.00 0.00
3:53 pm 15:53 Mostly Sunny 86 30 64 17.8 48 48 NNE 5 7 29.93 1013 10 16 0.00 0.00
4:53 pm 16:53 Mostly Sunny 82 27.8 65 18.3 56 56 SW 5 7 29.91 1013 10 16 0.00 0.00
5:53 pm 17:53 Sunny 82 27.8 65 18.3 56 56 Calm 29.91 1013 10 16 0.00 0.00
6:53 pm 18:53 Sunny 80 26.7 68 20 67 67 WSW 3 6 29.92 1013 10 16 0.00 0.00
7:53 pm 19:53 Clear 75 23.9 69 20.6 82 82 Calm 29.93 1014 10 16 0.00 0.00
8:53 pm 20:53 Mostly Cloudy 76 24.4 67 19.4 74 74 Calm 29.94 1014 10 16 0.00 0.00
9:53 pm 21:53 Cloudy 76 24.4 68 20 77 77 Calm 29.96 1015 10 16 0.00 0.00
10:53 pm 22:53 Partly Cloudy 74 23.3 68 20 82 82 Calm 29.96 1014 10 16 0.00 0.00
11:53 pm 23:53 Mostly Cloudy 73 22.8 68 20 84 84 NNW 3 6 29.97 1015 10 16 0.00 0.00

Powered by AerisWeather